Weather in Ulan

Russia / Zabaykalsky Krai     50°28′33″N   118°55′43″E
temp.,
°C
wind,
m/s
gust,
m/s
humid.,
%
clouds,
%
prec.,
mm/h
press.,
hPa
HPBL,
m
18 april, sun
sun1800:00+5sse34415 0.0 100975
03:00+2se34580 0.0 100865
06:000se33640 0.0 100854
09:00+5sse45453 0.0 1006391
12:00+13ssw4529100 0.0 1002860
15:00+18wsw482284 0.0 9992670
18:00+17nw882122 0.0 9992916
21:00+10nw1015200 0.0 10061147
19 april, mon
mon1900:00+3nnw914360 0.0 10141169
03:00−1nnw712230 0.0 10181189
06:00−4nw59270 0.0 1022586
09:00−2n57300 0.0 10231053
12:00+3nnw45140 0.0 10221399
15:00+6wnw4585 0.0 10192089
18:00+7wsw3685 0.0 10172570
21:00+4wsw33161 0.0 101843
20 april, tue
tue2000:00+2nnw01215 0.0 101910
03:00+1sse11233 0.0 101710
06:00−1sse32245 0.0 101720
09:00+5s581729 0.0 1015512
12:00+13ssw69165 0.0 10101164
15:00+18sw79169 0.0 10071526
18:00+18ssw781770 0.0 10061340
21:00+12s3326100 0.0 100721
21 april, wed
wed2100:00+10s2230100 0.0 100717
03:00+8ese224110 0.0 100811
06:00+6ese22530 0.0 100810
09:00+12sse353519 0.0 1007327
12:00+20sse681995 0.0 1004911
15:00+25sse101414100 0.0 10002461
18:00+24ssw71216100 0.0 9992297
21:00+17s3324100 0.0 100018
22 april, thu
thu2200:00+14s223612 0.0 100222
03:00+12sse33525 0.0 100324
06:00+10sse22622 0.0 100514
09:00+15nw124629 0.0 1007546
12:00+17nne65356 0.0 10101265
15:00+19n76285 0.0 10111412
18:00+17n8830100 0.0 10131445
21:00+11n1013440 0.0 1019806